period_start,C,m1,H,J0,J1,J2,J3,J4,J5,JA,JB,JC,JD,JJ,JK,JN,#
2015-06-25 00:04:22,-0.00,0.32,0.00,25.17,28.64,30.98,4.67,25.06,1014.18,2032.86,3333.95,3211.98,3497.06,349.67,344.07,21.82,0000 0000 0000 0000 000000
2015-06-25 00:09:23,0.00,0.32,0.00,25.19,28.65,30.99,4.79,25.13,1014.18,2032.87,3333.92,3211.98,3497.03,350.02,344.32,21.85,0000 0000 0000 0000 000000
2015-06-25 00:14:24,0.00,0.32,0.00,25.21,28.65,31.00,4.80,25.10,1014.18,2032.88,3333.79,3211.95,3497.02,350.87,345.06,21.88,0000 0000 0000 0000 000000
2015-06-25 00:19:25,-0.01,0.32,0.00,25.22,28.67,31.00,4.67,24.94,1014.18,2032.78,3333.54,3211.87,3497.01,349.91,344.13,21.91,0000 0000 0000 0000 000000
2015-06-25 00:24:27,0.00,0.32,0.00,25.24,28.67,31.02,4.81,25.02,1014.18,2032.54,3333.07,3211.24,3496.99,350.52,344.36,21.94,0000 0000 0000 0000 000000
2015-06-25 00:29:28,-0.00,0.32,0.00,25.26,28.70,31.03,4.60,24.83,1014.18,2032.36,3333.01,3211.06,3496.98,349.32,343.78,21.97,0000 0000 0000 0000 000000
2015-06-25 00:34:30,0.00,0.32,0.00,25.27,28.70,31.04,4.66,24.93,1014.18,2032.47,3333.01,3211.10,3496.98,349.73,344.47,22.00,0000 0000 0000 0000 000000
2015-06-25 00:39:30,-0.03,0.32,0.00,25.29,28.71,31.05,4.80,25.14,1014.18,2032.28,3332.99,3211.01,3496.73,350.52,344.57,22.02,0000 0000 0000 0000 000000
2015-06-25 00:44:32,-0.00,0.32,0.00,25.31,28.72,31.07,4.85,25.05,1014.17,2032.09,3332.98,3211.00,3496.28,350.32,344.49,22.05,0000 0000 0000 0000 000000
2015-06-25 00:49:33,0.00,0.32,0.00,25.32,28.74,31.08,4.58,24.95,1014.17,2032.05,3332.96,3211.00,3496.06,349.15,343.19,22.08,0000 0000 0000 0000 000000
2015-06-25 00:54:34,-0.00,0.32,0.00,25.33,28.75,31.10,4.73,25.08,1014.17,2032.01,3332.92,3210.98,3496.01,350.99,344.93,22.11,0000 0000 0000 0000 000000
2015-06-25 00:59:35,0.00,0.32,0.00,25.35,28.76,31.11,4.79,25.06,1014.17,2032.01,3332.81,3210.98,3496.00,350.47,344.55,22.14,0000 0000 0000 0000 000000
2015-06-25 01:04:36,0.02,0.32,0.00,25.36,28.77,31.12,4.59,24.93,1014.16,2032.00,3332.28,3210.81,3496.00,350.08,344.19,22.17,0000 0000 0000 0000 000000
2015-06-25 01:09:37,0.03,0.32,0.00,25.38,28.79,31.14,4.58,24.88,1014.17,2032.00,3332.10,3210.45,3495.99,349.49,343.38,22.20,0000 0000 0000 0000 000000
2015-06-25 01:14:38,0.01,0.32,0.00,25.41,28.80,31.15,4.61,24.89,1014.13,2032.00,3332.01,3210.07,3495.94,349.66,343.56,22.23,0000 0000 0000 0000 000000
2015-06-25 01:19:40,0.00,0.33,0.00,25.42,28.82,31.16,4.75,24.91,1014.16,2032.00,3332.00,3210.03,3495.86,349.82,343.97,22.26,0000 0000 0000 0000 000000
2015-06-25 01:24:41,0.00,0.33,0.00,25.45,28.82,31.17,4.59,24.90,1014.16,2032.00,3332.00,3210.01,3495.43,349.92,344.02,22.29,0000 0000 0000 0000 000000
2015-06-25 01:29:42,0.01,0.33,0.00,25.46,28.85,31.19,4.74,24.99,1014.12,2032.00,3331.99,3210.00,3495.19,350.67,344.40,22.32,0000 0000 0000 0000 000000
2015-06-25 01:34:43,0.00,0.33,0.00,25.47,28.86,31.20,4.82,25.04,1014.10,2031.99,3331.96,3209.99,3495.02,350.65,344.49,22.35,0000 0000 0000 0000 000000
2015-06-25 01:39:44,0.01,0.33,0.00,25.49,28.87,31.22,4.59,25.05,1014.11,2031.93,3331.75,3209.91,3494.99,349.08,343.03,22.38,0000 0000 0000 0000 000000
2015-06-25 01:44:46,-0.00,0.33,0.00,25.50,28.88,31.23,4.56,24.88,1014.16,2031.92,3331.53,3209.85,3494.99,349.74,344.01,22.41,0000 0000 0000 0000 000000
2015-06-25 01:49:47,0.00,0.33,0.00,25.52,28.90,31.25,4.84,25.05,1014.17,2031.86,3331.22,3209.59,3494.97,350.31,344.15,22.43,0000 0000 0000 0000 000000
2015-06-25 01:54:48,-0.01,0.33,0.00,25.53,28.91,31.26,4.56,24.93,1014.17,2031.72,3331.10,3209.29,3494.91,349.64,343.60,22.46,0000 0000 0000 0000 000000
2015-06-25 01:59:49,-0.01,0.33,0.00,25.55,28.92,31.27,4.67,24.98,1014.19,2031.60,3331.06,3209.16,3494.77,350.17,344.42,22.49,0000 0000 0000 0000 000000
2015-06-25 02:04:51,-0.00,0.33,0.00,25.55,28.94,31.29,4.79,25.02,1014.19,2031.39,3331.01,3209.04,3494.29,350.08,343.87,22.52,0000 0000 0000 0000 000000
2015-06-25 02:09:52,-0.03,0.32,0.00,25.57,28.95,31.30,4.77,24.96,1014.19,2031.15,3331.00,3209.01,3494.06,350.08,343.95,22.55,0000 0000 0000 0000 000000
2015-06-25 02:14:53,-0.01,0.32,0.00,25.58,28.97,31.31,4.77,24.87,1014.18,2031.05,3331.00,3209.00,3494.00,350.10,343.94,22.58,0000 0000 0000 0000 000000
2015-06-25 02:19:54,0.00,0.32,0.00,25.60,28.97,31.33,4.83,24.95,1014.18,2031.01,3330.97,3208.98,3494.00,350.77,344.57,22.61,0000 0000 0000 0000 000000
2015-06-25 02:24:55,0.00,0.32,0.00,25.60,29.00,31.34,4.64,24.88,1014.18,2031.00,3330.93,3208.96,3493.98,349.64,343.32,22.64,0000 0000 0000 0000 000000
2015-06-25 02:29:57,0.01,0.32,0.00,25.62,29.00,31.35,4.83,25.08,1014.19,2031.00,3330.66,3208.90,3493.95,350.55,344.28,22.67,0000 0000 0000 0000 000000
2015-06-25 02:34:58,0.01,0.32,0.00,25.62,29.01,31.36,4.71,24.99,1014.19,2031.00,3330.48,3208.82,3493.93,350.05,343.90,22.70,0000 0000 0000 0000 000000
2015-06-25 02:39:59,0.05,0.33,0.00,25.63,29.02,31.37,4.67,25.09,1014.26,2030.99,3330.14,3208.33,3493.44,349.81,343.81,22.73,0000 0000 0000 0000 000000
2015-06-25 02:45:00,-0.01,0.33,0.00,25.65,29.04,31.39,4.66,24.93,1014.23,2030.99,3330.08,3208.17,3493.40,349.71,343.47,22.76,0000 0000 0000 0000 000000
2015-06-25 02:50:01,0.01,0.33,0.00,25.65,29.05,31.40,4.66,24.95,1014.19,2030.98,3330.02,3208.07,3493.14,349.97,343.60,22.79,0000 0000 0000 0000 000000
2015-06-25 02:55:03,0.00,0.33,0.00,25.66,29.06,31.42,4.65,24.92,1014.19,2030.99,3330.00,3208.03,3493.03,349.45,343.08,22.82,0000 0000 0000 0000 000000
2015-06-25 03:00:04,-0.01,0.33,0.00,25.67,29.07,31.43,4.79,25.02,1014.18,2030.97,3330.00,3208.01,3493.01,349.70,343.47,22.84,0000 0000 0000 0000 000000
2015-06-25 03:05:05,0.00,0.33,0.00,25.69,29.08,31.44,4.77,24.88,1014.18,2030.96,3330.00,3208.00,3493.00,349.95,343.59,22.87,0000 0000 0000 0000 000000
2015-06-25 03:10:06,-0.00,0.33,0.00,25.70,29.10,31.45,4.72,24.87,1014.17,2030.94,3329.99,3208.00,3493.00,350.19,343.83,22.90,0000 0000 0000 0000 000000
2015-06-25 03:15:08,0.00,0.33,0.00,25.70,29.10,31.47,4.64,24.91,1014.10,2030.89,3329.92,3207.99,3493.00,350.08,343.70,22.93,0000 0000 0000 0000 000000
2015-06-25 03:20:09,-0.02,0.33,0.00,25.71,29.12,31.47,4.69,24.90,1014.10,2030.80,3329.90,3207.97,3492.98,349.60,343.46,22.96,0000 0000 0000 0000 000000
2015-06-25 03:25:10,-0.05,0.32,0.00,25.73,29.12,31.47,4.75,24.86,1014.17,2030.36,3329.68,3207.91,3492.75,349.93,343.79,22.99,0000 0000 0000 0000 000000
2015-06-25 03:30:11,0.02,0.32,0.00,25.74,29.15,31.49,4.72,24.89,1014.17,2030.12,3329.32,3207.54,3492.25,350.57,344.23,23.02,0000 0000 0000 0000 000000
2015-06-25 03:35:12,0.01,0.32,0.00,25.75,29.15,31.51,4.71,24.93,1014.17,2030.07,3329.11,3207.21,3492.10,350.10,343.82,23.05,0000 0000 0000 0000 000000
2015-06-25 03:40:13,0.00,0.33,0.00,25.75,29.17,31.52,4.68,25.07,1014.17,2030.01,3329.00,3207.02,3492.00,349.81,343.69,23.08,0000 0000 0000 0000 000000
2015-06-25 03:45:14,-0.00,0.33,0.00,25.77,29.17,31.53,4.72,25.01,1014.16,2030.01,3329.00,3207.01,3492.00,349.77,343.66,23.11,0000 0000 0000 0000 000000
2015-06-25 03:50:15,0.00,0.32,0.00,25.78,29.19,31.53,4.70,24.94,1014.14,2030.00,3329.00,3207.00,3492.00,350.33,344.03,23.14,0000 0000 0000 0000 000000
2015-06-25 03:55:17,0.00,0.32,0.00,25.80,29.20,31.55,4.62,24.97,1014.17,2030.00,3328.98,3207.00,3491.97,350.04,343.67,23.17,0000 0000 0000 0000 000000
2015-06-25 04:00:18,0.01,0.33,0.00,25.80,29.20,31.56,4.78,25.03,1014.16,2030.00,3328.75,3206.97,3491.80,349.87,343.35,23.20,0000 0000 0000 0000 000000
2015-06-25 04:05:19,0.04,0.33,0.00,25.82,29.22,31.57,4.64,24.92,1014.17,2029.99,3328.21,3206.83,3491.29,348.91,342.57,23.23,0000 0000 0000 0000 000000
2015-06-25 04:10:20,0.01,0.33,0.00,25.82,29.22,31.58,4.69,24.97,1014.17,2029.99,3328.10,3206.68,3491.16,349.43,343.03,23.25,0000 0000 0000 0000 000000
2015-06-25 04:15:22,0.02,0.33,0.00,25.82,29.24,31.59,4.76,24.98,1014.17,2029.99,3328.03,3206.31,3491.02,350.43,343.80,23.28,0000 0000 0000 0000 000000
2015-06-25 04:20:23,0.00,0.33,0.00,25.84,29.25,31.61,4.69,25.07,1014.17,2029.99,3328.00,3206.12,3491.02,350.00,343.80,23.31,0000 0000 0000 0000 000000
2015-06-25 04:25:25,0.00,0.33,0.00,25.85,29.26,31.61,4.57,25.06,1014.17,2029.99,3328.00,3206.06,3491.01,349.65,343.18,23.34,0000 0000 0000 0000 000000
2015-06-25 04:30:26,0.00,0.33,0.00,25.85,29.27,31.62,4.65,25.03,1014.18,2029.99,3328.00,3206.03,3491.00,349.49,343.06,23.37,0000 0000 0000 0000 000000
2015-06-25 04:35:27,0.00,0.33,0.00,25.85,29.27,31.63,4.84,25.15,1014.23,2029.98,3327.99,3206.02,3491.00,350.32,343.99,23.40,0000 0000 0000 0000 000000
2015-06-25 04:40:28,-0.00,0.33,0.00,25.85,29.29,31.65,4.60,25.02,1014.21,2029.95,3327.96,3206.00,3490.99,349.66,343.40,23.43,0000 0000 0000 0000 000000
2015-06-25 04:45:29,-0.00,0.33,0.00,25.87,29.30,31.65,4.65,25.01,1014.22,2029.95,3327.94,3206.00,3490.98,349.59,343.25,23.46,0000 0000 0000 0000 000000
2015-06-25 04:50:30,-0.00,0.33,0.00,25.87,29.30,31.65,4.64,25.02,1014.20,2029.88,3327.78,3205.99,3490.81,350.68,344.14,23.49,0000 0000 0000 0000 000000
2015-06-25 04:55:31,-0.01,0.33,0.00,25.88,29.32,31.67,4.68,25.11,1014.27,2029.80,3327.47,3205.97,3490.58,349.94,343.66,23.52,0000 0000 0000 0000 000000
2015-06-25 05:00:32,-0.00,0.33,0.00,25.90,29.32,31.67,4.68,25.05,1014.55,2029.64,3327.26,3205.94,3490.27,349.54,343.06,23.55,0000 0000 0000 0000 000000
2015-06-25 05:05:33,-0.00,0.33,0.00,25.90,29.32,31.68,4.70,25.00,1014.61,2029.56,3327.12,3205.90,3490.12,349.97,343.81,23.58,0000 0000 0000 0000 000000
2015-06-25 05:10:35,0.00,0.33,0.00,25.90,29.34,31.69,4.63,24.97,1014.28,2029.45,3327.03,3205.69,3490.02,350.86,344.44,23.61,0000 0000 0000 0000 000000
2015-06-25 05:15:36,-0.01,0.33,0.00,25.90,29.35,31.70,4.73,24.97,1014.19,2029.23,3327.02,3205.44,3490.00,349.41,342.91,23.64,0000 0000 0000 0000 000000
2015-06-25 05:20:37,-0.02,0.33,0.00,25.91,29.35,31.71,4.63,24.89,1014.18,2029.20,3327.00,3205.34,3490.01,349.91,343.54,23.66,0000 0000 0000 0000 000000
2015-06-25 05:25:38,-0.01,0.33,0.00,25.91,29.37,31.73,4.66,24.82,1014.24,2029.07,3327.00,3205.09,3490.00,349.74,343.21,23.69,0000 0000 0000 0000 000000
2015-06-25 05:30:39,-0.00,0.33,0.00,25.91,29.37,31.72,4.66,24.99,1014.30,2029.07,3327.00,3205.03,3490.00,349.93,343.67,23.72,0000 0000 0000 0000 000000
2015-06-25 05:35:41,-0.01,0.33,0.00,25.92,29.37,31.74,4.82,25.03,1014.38,2029.06,3327.00,3205.02,3489.99,350.61,344.14,23.75,0000 0000 0000 0000 000000
2015-06-25 05:40:42,0.00,0.33,0.00,25.92,29.39,31.74,4.70,25.03,1014.36,2029.03,3326.98,3205.00,3489.98,350.39,344.15,23.78,0000 0000 0000 0000 000000
2015-06-25 05:45:43,-0.00,0.33,0.00,25.92,29.40,31.74,4.76,24.96,1014.21,2029.02,3326.99,3205.00,3489.97,350.31,343.53,23.81,0000 0000 0000 0000 000000
2015-06-25 05:50:44,0.00,0.33,0.00,25.92,29.40,31.75,4.73,24.88,1014.19,2029.01,3326.99,3205.00,3489.95,350.37,343.98,23.84,0000 0000 0000 0000 000000
2015-06-25 05:55:46,0.01,0.33,0.00,25.92,29.40,31.76,4.70,24.98,1014.19,2029.01,3326.97,3205.00,3489.74,350.35,343.82,23.87,0000 0000 0000 0000 000000
2015-06-25 06:00:47,0.01,0.33,0.00,25.92,29.41,31.78,4.64,25.07,1014.19,2029.00,3326.91,3205.00,3489.43,349.21,342.76,23.90,0000 0000 0000 0000 000000
2015-06-25 06:05:48,0.01,0.33,0.00,25.92,29.42,31.78,4.70,24.99,1014.19,2029.00,3326.82,3204.99,3489.25,350.29,343.74,23.93,0000 0000 0000 0000 000000
2015-06-25 06:10:49,-0.00,0.33,0.00,25.92,29.42,31.79,4.66,24.86,1014.20,2029.00,3326.88,3204.99,3489.41,350.10,343.46,23.96,0000 0000 0000 0000 000000
2015-06-25 06:15:51,0.02,0.33,0.00,25.93,29.42,31.79,4.71,24.88,1014.19,2029.00,3326.62,3204.98,3489.12,350.16,343.68,23.99,0000 0000 0000 0000 000000
2015-06-25 06:20:52,0.01,0.33,0.00,25.94,29.43,31.80,4.77,24.95,1014.19,2029.00,3326.29,3204.96,3489.05,350.39,343.36,24.02,0000 0000 0000 0000 000000
2015-06-25 06:25:53,0.00,0.33,0.00,25.95,29.45,31.80,4.64,24.83,1014.18,2029.00,3326.14,3204.94,3489.03,350.32,343.84,24.05,0000 0000 0000 0000 000000
2015-06-25 06:30:55,-0.00,0.33,0.00,25.95,29.45,31.80,4.73,24.94,1014.19,2029.00,3326.15,3204.94,3489.03,350.35,343.99,24.07,0000 0000 0000 0000 000000
2015-06-25 06:35:56,-0.00,0.33,0.00,25.95,29.45,31.82,4.73,24.98,1014.18,2029.00,3326.22,3204.97,3489.03,350.14,343.57,24.10,0000 0000 0000 0000 000000
2015-06-25 06:40:57,0.02,0.33,0.00,25.95,29.45,31.83,4.73,24.88,1014.19,2029.00,3326.02,3204.77,3489.00,350.35,343.47,24.13,0000 0000 0000 0000 000000
2015-06-25 06:45:58,0.02,0.33,0.00,25.95,29.45,31.83,4.67,24.84,1014.18,2029.00,3325.88,3204.47,3488.99,350.10,343.22,24.16,0000 0000 0000 0000 000000
2015-06-25 06:50:59,0.08,0.33,0.00,25.95,29.46,31.82,4.68,24.87,1014.19,2029.00,3324.43,3203.99,3488.21,350.15,343.58,24.19,0000 0000 0000 0000 000000
2015-06-25 06:56:01,0.00,0.33,0.00,25.95,29.47,31.82,4.71,24.88,1014.19,2029.00,3324.01,3203.94,3488.00,350.36,343.88,24.22,0000 0000 0000 0000 000000
2015-06-25 07:01:02,0.01,0.33,0.00,25.95,29.47,31.83,4.65,24.73,1014.21,2029.00,3324.00,3203.72,3488.00,350.16,343.49,24.25,0000 0000 0000 0000 000000
2015-06-25 07:06:04,0.02,0.33,0.00,25.95,29.47,31.83,4.74,24.82,1014.25,2029.00,3323.91,3203.14,3487.99,350.45,343.99,24.28,0000 0000 0000 0000 000000
2015-06-25 07:11:05,0.02,0.33,0.00,25.95,29.47,31.85,4.68,24.78,1014.25,2029.00,3323.46,3203.04,3487.97,350.42,344.00,24.31,0000 0000 0000 0000 000000
2015-06-25 07:16:06,0.01,0.33,0.00,25.95,29.47,31.83,4.77,24.91,1014.28,2029.00,3323.07,3203.01,3487.85,349.99,343.46,24.34,0000 0000 0000 0000 000000
2015-06-25 07:21:07,0.00,0.33,0.00,25.95,29.47,31.84,4.83,24.93,1014.31,2028.98,3323.00,3203.00,3487.51,350.97,344.44,24.37,0000 0000 0000 0000 000000
2015-06-25 07:26:08,0.01,0.33,0.00,25.95,29.47,31.83,4.65,24.78,1014.22,2028.99,3322.98,3203.00,3487.26,349.53,343.13,24.40,0000 0000 0000 0000 000000
2015-06-25 07:31:10,0.01,0.33,0.00,25.95,29.48,31.85,4.75,24.81,1014.19,2028.99,3322.80,3202.99,3487.06,349.92,343.45,24.43,0000 0000 0000 0000 000000
2015-06-25 07:36:11,0.01,0.33,0.00,25.93,29.48,31.86,4.73,24.93,1014.19,2028.99,3322.23,3202.97,3487.01,350.29,343.85,24.46,0000 0000 0000 0000 000000
2015-06-25 07:41:12,0.00,0.33,0.00,25.93,29.48,31.86,4.64,24.82,1014.19,2028.95,3322.00,3202.78,3486.99,350.13,343.68,24.48,0000 0000 0000 0000 000000
2015-06-25 07:46:13,0.01,0.34,0.00,25.92,29.49,31.86,4.78,24.94,1014.21,2028.96,3321.99,3202.61,3486.97,349.92,343.52,24.51,0000 0000 0000 0000 000000
2015-06-25 07:51:14,0.01,0.34,0.00,25.92,29.49,31.87,4.74,24.81,1014.27,2028.96,3321.94,3202.26,3486.97,350.39,343.74,24.54,0000 0000 0000 0000 000000
2015-06-25 07:56:16,0.01,0.34,0.00,25.92,29.49,31.86,4.78,24.89,1014.26,2028.95,3321.92,3202.13,3486.95,350.24,343.74,24.57,0000 0000 0000 0000 000000
2015-06-25 08:01:17,0.00,0.34,0.00,25.91,29.49,31.88,4.61,24.75,1014.28,2028.95,3321.95,3202.22,3486.96,349.35,342.99,24.60,0000 0000 0000 0000 000000
2015-06-25 08:06:18,0.00,0.34,0.00,25.90,29.49,31.87,4.71,24.79,1014.28,2028.94,3321.84,3202.16,3486.90,349.45,343.05,24.63,0000 0000 0000 0000 000000
2015-06-25 08:11:19,0.03,0.34,0.00,25.90,29.49,31.87,4.86,24.96,1014.19,2028.96,3321.36,3202.09,3486.84,350.79,344.27,24.66,0000 0000 0000 0000 000000
2015-06-25 08:16:20,0.01,0.34,0.00,25.90,29.49,31.87,4.61,24.73,1014.18,2028.93,3321.03,3202.01,3486.44,349.75,343.69,24.69,0000 0000 0000 0000 000000
2015-06-25 08:21:21,-0.00,0.34,0.00,25.87,29.49,31.86,4.81,24.80,1014.18,2028.88,3321.00,3202.00,3486.21,350.67,344.23,24.72,0000 0000 0000 0000 000000
2015-06-25 08:26:23,0.01,0.34,0.00,25.87,29.49,31.88,4.81,24.76,1014.18,2028.93,3321.00,3202.01,3486.23,350.87,344.23,24.75,0000 0000 0000 0000 000000
2015-06-25 08:31:24,0.00,0.34,0.00,25.86,29.48,31.87,4.71,24.73,1014.18,2028.92,3321.00,3202.00,3486.11,350.21,343.80,24.78,0000 0000 0000 0000 000000
2015-06-25 08:36:25,0.01,0.34,0.00,25.85,29.48,31.88,4.59,24.75,1014.18,2028.93,3320.84,3201.99,3486.02,350.07,343.66,24.81,0000 0000 0000 0000 000000
2015-06-25 08:41:26,-0.02,0.34,0.00,25.85,29.47,31.87,4.65,24.78,1014.18,2028.74,3320.18,3201.95,3486.00,349.64,343.20,24.84,0000 0000 0000 0000 000000
2015-06-25 08:46:27,0.02,0.34,0.00,25.83,29.47,31.87,4.65,24.68,1014.18,2028.82,3320.29,3201.97,3485.99,350.03,343.78,24.87,0000 0000 0000 0000 000000
2015-06-25 08:51:29,0.00,0.34,0.00,25.82,29.47,31.87,4.69,24.72,1014.18,2028.89,3320.46,3201.99,3485.99,349.79,343.51,24.90,0000 0000 0000 0000 000000
2015-06-25 08:56:30,-0.00,0.34,0.00,25.82,29.47,31.88,4.66,24.69,1014.18,2028.88,3320.26,3201.99,3485.99,350.12,343.79,24.92,0000 0000 0000 0000 000000
2015-06-25 09:01:31,0.00,0.34,0.00,25.80,29.47,31.89,4.69,24.72,1014.18,2028.94,3320.41,3201.98,3486.00,349.82,343.41,24.95,0000 0000 0000 0000 000000
2015-06-25 09:06:33,0.01,0.34,0.00,25.80,29.47,31.88,4.64,24.77,1014.19,2028.96,3320.65,3201.99,3486.01,350.31,343.84,24.98,0000 0000 0000 0000 000000
2015-06-25 09:11:34,-0.00,0.34,0.00,25.77,29.46,31.88,4.70,24.77,1014.20,2028.95,3320.70,3201.99,3486.00,349.94,343.79,25.01,0000 0000 0000 0000 000000
2015-06-25 09:16:35,-0.00,0.34,0.00,25.77,29.45,31.87,4.65,24.79,1014.34,2028.97,3320.87,3201.99,3486.01,349.92,343.56,25.04,0000 0000 0000 0000 000000
2015-06-25 09:21:36,-0.00,0.34,0.00,25.77,29.45,31.87,4.74,24.90,1014.34,2028.98,3320.94,3201.99,3486.01,350.57,344.17,25.07,0000 0000 0000 0000 000000
2015-06-25 09:26:37,-0.00,0.34,0.00,25.75,29.45,31.86,4.81,24.92,1014.55,2028.98,3320.96,3201.99,3486.04,350.51,344.12,25.10,0000 0000 0000 0000 000000
2015-06-25 09:31:39,-0.00,0.34,0.00,25.75,29.45,31.88,4.60,24.69,1014.64,2028.98,3320.98,3202.00,3486.11,349.38,343.11,25.13,0000 0000 0000 0000 000000
2015-06-25 09:36:40,-0.01,0.34,0.00,25.75,29.45,31.86,4.73,24.82,1014.61,2028.99,3320.98,3202.00,3486.27,349.82,343.64,25.16,0000 0000 0000 0000 000000
2015-06-25 09:41:41,0.01,0.34,0.00,25.73,29.43,31.87,4.64,24.92,1014.66,2028.99,3320.93,3202.01,3486.14,350.00,343.78,25.19,0000 0000 0000 0000 000000
2015-06-25 09:46:43,-0.01,0.34,0.00,25.72,29.42,31.87,4.64,24.67,1014.65,2028.99,3320.98,3202.02,3486.34,350.07,343.92,25.22,0000 0000 0000 0000 000000
2015-06-25 09:51:44,0.00,0.34,0.00,25.70,29.42,31.87,4.67,24.72,1014.65,2028.99,3320.98,3202.00,3486.29,349.80,343.61,25.25,0000 0000 0000 0000 000000
2015-06-25 09:56:45,-0.01,0.34,0.00,25.70,29.42,31.86,4.72,24.77,1014.61,2028.99,3320.97,3202.02,3486.56,350.02,344.01,25.28,0000 0000 0000 0000 000000
2015-06-25 10:01:46,1.18,0.36,0.00,25.68,29.41,31.85,4.69,24.77,1014.56,2028.99,3310.11,3193.33,3477.32,349.83,343.78,25.31,0000 0000 0000 0000 000000
2015-06-25 10:06:47,0.05,0.37,0.00,25.67,29.40,31.88,4.73,24.76,1014.52,2028.99,3306.04,3190.10,3474.02,350.61,344.33,25.33,0000 0000 0000 0000 000000
2015-06-25 10:11:48,0.00,0.37,0.00,25.66,29.40,31.87,4.70,24.68,1014.47,2028.99,3306.00,3190.07,3474.00,350.08,343.94,25.36,0000 0000 0000 0000 000000
2015-06-25 10:16:49,0.00,0.37,0.00,25.65,29.40,31.85,4.74,24.77,1014.21,2028.99,3306.00,3190.08,3474.01,350.40,344.20,25.39,0000 0000 0000 0000 000000
2015-06-25 10:21:50,-0.00,0.37,0.00,25.65,29.38,31.85,4.79,24.72,1014.24,2028.99,3306.00,3190.14,3474.00,350.80,344.65,25.42,0000 0000 0000 0000 000000
2015-06-25 10:26:51,-0.01,0.37,0.00,25.62,29.37,31.84,4.72,24.74,1014.21,2028.99,3306.00,3190.29,3474.03,350.26,344.07,25.45,0000 0000 0000 0000 000000
2015-06-25 10:31:52,-0.00,0.37,0.00,25.61,29.37,31.84,4.63,24.68,1014.19,2028.99,3306.03,3190.51,3474.04,350.02,343.77,25.48,0000 0000 0000 0000 000000
2015-06-25 10:36:54,0.00,0.37,0.00,25.60,29.36,31.84,4.68,24.86,1014.21,2028.99,3306.00,3190.41,3474.02,349.76,343.61,25.51,0000 0000 0000 0000 000000
2015-06-25 10:41:55,-0.01,0.37,0.00,25.59,29.35,31.84,4.73,24.82,1014.39,2028.99,3306.01,3190.42,3474.07,349.91,343.70,25.54,0000 0000 0000 0000 000000
2015-06-25 10:46:56,-0.02,0.37,0.00,25.56,29.35,31.82,4.71,24.86,1014.27,2029.00,3306.07,3190.88,3474.26,350.22,343.97,25.57,0000 0000 0000 0000 000000
2015-06-25 10:51:58,-0.00,0.37,0.00,25.55,29.34,31.83,4.73,24.88,1014.20,2029.00,3306.03,3190.87,3474.20,349.83,343.95,25.60,0000 0000 0000 0000 000000
2015-06-25 10:56:59,-0.01,0.37,0.00,25.55,29.32,31.83,4.74,24.90,1014.19,2029.00,3306.07,3190.94,3474.34,350.14,343.91,25.63,0000 0000 0000 0000 000000
2015-06-25 11:02:00,-0.00,0.37,0.00,25.53,29.32,31.80,4.70,24.79,1014.19,2029.00,3306.05,3190.94,3474.37,349.57,343.48,25.66,0000 0000 0000 0000 000000
2015-06-25 11:07:01,-0.01,0.37,0.00,25.52,29.30,31.80,4.71,24.73,1014.19,2029.00,3306.08,3190.94,3474.43,350.30,344.05,25.69,0000 0000 0000 0000 000000
2015-06-25 11:12:02,-0.02,0.37,0.00,25.51,29.30,31.78,4.75,24.72,1014.18,2029.03,3306.47,3190.99,3474.86,350.49,344.28,25.72,0000 0000 0000 0000 000000
2015-06-25 11:17:04,-0.00,0.37,0.00,25.49,29.30,31.80,4.67,24.75,1014.17,2029.03,3306.71,3190.99,3474.96,349.95,343.83,25.74,0000 0000 0000 0000 000000
2015-06-25 11:22:05,0.00,0.37,0.00,25.48,29.27,31.77,4.68,24.67,1014.16,2029.06,3306.67,3190.99,3474.97,349.94,343.71,25.77,0000 0000 0000 0000 000000
2015-06-25 11:27:06,0.00,0.37,0.00,25.47,29.27,31.75,4.64,24.79,1014.17,2029.11,3306.76,3190.99,3474.99,349.87,343.85,25.80,0000 0000 0000 0000 000000
2015-06-25 11:32:07,0.02,0.37,0.00,25.45,29.26,31.75,4.73,24.83,1014.17,2029.23,3306.88,3191.00,3474.99,350.38,344.40,25.83,0000 0000 0000 0000 000000
2015-06-25 11:37:08,0.00,0.37,0.00,25.45,29.25,31.74,4.75,25.00,1014.20,2029.24,3306.83,3191.00,3474.99,350.39,344.36,25.86,0000 0000 0000 0000 000000
2015-06-25 11:42:09,0.04,0.37,0.00,25.45,29.24,31.73,4.72,25.08,1014.21,2029.46,3306.91,3191.02,3474.99,350.30,344.32,25.89,0000 0000 0000 0000 000000
2015-06-25 11:47:10,0.04,0.38,0.00,25.42,29.22,31.72,4.68,24.92,1014.19,2029.84,3306.99,3191.04,3474.99,350.15,344.27,25.92,0000 0000 0000 0000 000000
2015-06-25 11:52:12,0.00,0.38,0.00,25.42,29.22,31.70,4.80,24.96,1014.19,2029.90,3306.98,3191.13,3475.01,350.25,344.20,25.95,0000 0000 0000 0000 000000
2015-06-25 11:57:13,-0.02,0.38,0.00,25.41,29.21,31.70,4.67,24.84,1014.18,2029.94,3306.99,3191.29,3475.02,350.03,343.94,25.98,0000 0000 0000 0000 000000
2015-06-25 12:02:14,-0.01,0.38,0.00,25.40,29.20,31.70,4.69,24.93,1014.18,2029.98,3306.99,3191.63,3475.09,349.15,343.17,26.01,0000 0000 0000 0000 000000
2015-06-25 12:07:16,-0.00,0.38,0.00,25.39,29.20,31.69,4.78,24.93,1014.19,2029.96,3306.99,3191.59,3475.10,350.00,344.08,26.04,0000 0000 0000 0000 000000
2015-06-25 12:12:17,-0.01,0.37,0.00,25.38,29.17,31.67,4.68,24.91,1014.19,2029.98,3306.99,3191.90,3475.31,349.80,343.84,26.07,0000 0000 0000 0000 000000
2015-06-25 12:17:18,-0.00,0.37,0.00,25.37,29.17,31.65,4.81,24.84,1014.18,2029.98,3306.99,3191.93,3475.44,350.29,344.54,26.10,0000 0000 0000 0000 000000
2015-06-25 12:22:19,-0.01,0.37,0.00,25.35,29.16,31.66,4.71,24.88,1014.17,2029.99,3306.99,3191.98,3475.80,350.27,344.31,26.13,0000 0000 0000 0000 000000
2015-06-25 12:27:20,-0.00,0.37,0.00,25.34,29.15,31.66,4.72,24.91,1014.16,2029.99,3307.02,3191.99,3475.97,350.03,343.97,26.15,0000 0000 0000 0000 000000
2015-06-25 12:32:21,0.00,0.37,0.00,25.32,29.14,31.65,4.77,25.01,1014.16,2029.99,3307.03,3191.99,3475.97,349.86,344.24,26.18,0000 0000 0000 0000 000000
2015-06-25 12:37:22,0.00,0.37,0.00,25.30,29.12,31.67,4.69,25.02,1014.17,2029.99,3307.02,3191.99,3475.97,349.55,343.51,26.21,0000 0000 0000 0000 000000
2015-06-25 12:42:23,0.00,0.37,0.00,25.27,29.12,31.64,4.75,24.98,1014.17,2029.99,3307.03,3191.99,3475.98,350.57,344.60,26.24,0000 0000 0000 0000 000000
2015-06-25 12:47:24,-0.00,0.37,0.00,25.26,29.10,31.63,4.83,24.91,1014.17,2029.99,3307.22,3191.99,3475.99,350.21,344.19,26.27,0000 0000 0000 0000 000000
2015-06-25 12:52:26,-0.00,0.37,0.00,25.25,29.10,31.60,4.60,24.85,1014.17,2030.02,3307.38,3192.01,3476.00,349.70,343.95,26.30,0000 0000 0000 0000 000000
2015-06-25 12:57:27,-0.00,0.37,0.00,25.23,29.08,31.62,4.72,24.92,1014.17,2030.02,3307.58,3192.02,3476.00,350.12,344.62,26.33,0000 0000 0000 0000 000000
2015-06-25 13:02:28,-0.01,0.37,0.00,25.21,29.07,31.59,4.54,24.76,1014.08,2030.04,3307.80,3192.06,3476.01,349.58,344.00,26.36,0000 0000 0000 0000 000000